Regional Weather Roundup
Issued by NWS

Home | Current Version | Previous Version | Graphics & Text | Print | Product List | Glossary On
Versions: 1 2 3 4 5 6 7 8 9 10 11 12 13 14 15 16 17 18 19 20 21 22 23 24 25 26 27 28 29 30 31 32 33 34 35 36 37 38 39 40 41 42 43 44 45 46 47 48 49 50
000
ASUS43 KLOT 202000
RWRIL

ILLINOIS REGIONAL WEATHER ROUNDUP
NATIONAL WEATHER SERVICE CHICAGO/ROMEOVILLE IL
300 PM CDT SAT SEP 20 2014

NOTE: "FAIR" INDICATES FEW OR NO CLOUDS BELOW 12,000 FEET WITH NO
SIGNIFICANT WEATHER AND/OR OBSTRUCTIONS TO VISIBILITY.

* THESE STATIONS ARE NOT UNDER NWS QUALITY CONTROL. THEY ALSO MAY NOT
  REPORT WEATHER SUCH AS PRECIPITATION OR FOG.

ILZ001-002-007-009-015-016-024-202100-
NORTHWEST ILLINOIS

CITY           SKY/WX    TMP DP  RH WIND       PRES   REMARKS
MOLINE         CLOUDY    75  67  76 S6        29.83F
STERLING*      PTSUNNY   72  66  83 W7        29.86F
$$

ILZ003-004-008-010-011-017-018-202100-
NORTH CENTRAL ILLINOIS

CITY           SKY/WX    TMP DP  RH WIND       PRES   REMARKS
ROCKFORD       LGT RAIN  71  66  84 SW16      29.84S
$$

ILZ005-006-012>014-019>023-202100-
NORTHEAST ILLINOIS

CITY           SKY/WX    TMP DP  RH WIND       PRES   REMARKS
CHICAGO-OHARE  PTSUNNY   72  69  90 SW13      29.81F
CHICAGO-MIDWAY CLOUDY    75  69  81 SW6       29.79F
AURORA         PTSUNNY   77  66  68 W17G25    29.85F
WAUKEGAN       PTSUNNY   74  64  71 SW14G23   29.79F
DUPAGE AIRPORT PTSUNNY   74  67  78 SW12      29.83F
WHEELING       PTSUNNY   76  66  71 SW9       29.81F
NORTHERLY ISL    N/A     73  65  75 SW5         N/A
$$

LMZ740>746-202100-
SOUTHERN LAKE MICHIGAN

STATION/POSITION SKY/WX   TEMP    WIND        PRES    VSBY  WAVE
                          AIR SEA DIR/SP/G                  HT/PER
                          (F)     (DEG/KT/KT) (MB)    (MI)  (FT/S)
SOUTHERN BUOY              66 63  210/ 14/ 17 1008.9F         4/ 6
WAUKEGAN HARBOR            74     220/ 15/ 19   N/A
HARRISON CRIB              74     220/ 16/ 19   N/A
BURNHAM HARBOR             73     180/  2/ 15   N/A
CALUMET HARBOR             75     240/  5/ 10 1009.7R
MICHIGAN CITY              76     200/ 18/ 24   N/A
MICHIGAN CITY 6N           70 65  240/ 10/ 14   N/A           3/ 4
ST. JOSEPH                 69 65  230/ 10/ 14   N/A           3/ 4
$$

ILZ025>027-034>036-040-047-049-050-058-095>099-202100-
WEST-CENTRAL ILLINOIS

CITY           SKY/WX    TMP DP  RH WIND       PRES   REMARKS
QUINCY         CLOUDY    81  69  67 NW9       29.92F HX  84
$$

ILZ028>032-037-038-041>044-048-051>054-059>061-202100-
CENTRAL ILLINOIS

CITY           SKY/WX    TMP DP  RH WIND       PRES   REMARKS
DECATUR        CLOUDY    83  68  60 SW18G28   29.90F HX  86
PEORIA         LGT RAIN  78  69  73 SW9       29.88F HX  80
SPRINGFIELD    CLOUDY    84  69  60 W14G20    29.91F HX  88
TAYLORVILLE    NOT AVBL
$$

ILZ033-039-045-046-055>057-062-063-202100-
EAST-CENTRAL ILLINOIS

CITY           SKY/WX    TMP DP  RH WIND       PRES   REMARKS
CHAMPAIGN      PTSUNNY   83  67  58 SW18G29   29.90S HX  85
MATTOON        MOSUNNY   80  67  64 SW13G22   29.93F HX  82
$$

ILZ079-100>102-202100-
SOUTHWEST ILLINOIS

CITY           SKY/WX    TMP DP  RH WIND       PRES   REMARKS
ALTON          CLOUDY    82  68  61 SW10      29.94F HX  85
BELLEVILLE     PTSUNNY   84  69  60 VRB5      29.93F HX  88
CAHOKIA*       CLOUDY    86  68  54 SW8       29.93F HX  89
$$

ILZ064>066-069>071-074>076-080>082-084>086-088>090-092>094-202100-
SOUTH-CENTRAL ILLINOIS

CITY           SKY/WX    TMP DP  RH WIND       PRES   REMARKS
CARBONDALE     PTSUNNY   84  67  56 S10       29.97F HX  86
MARION         PTSUNNY   86  68  54 SW12      29.98F HX  89
MT. VERNON     MOSUNNY   84  70  61 S12       29.97F HX  88
$$

ILZ067-068-072-073-078-083-087-091-202100-
SOUTHEAST ILLINOIS

CITY           SKY/WX    TMP DP  RH WIND       PRES   REMARKS
LAWRENCEVILLE  MOSUNNY   85  66  53 SW14      29.96F HX  87
$$

ABBREVIATIONS USED IN REMARKS
   TC - TEMPERATURE IN CELSIUS
  WCI - WIND CHILL INDEX
   HX - HEAT INDEX
  VSB - VISIBILITY
$$



USA.gov is the U.S. government's official web portal to all federal, state and local government web resources and services.